Showing default

SPACEWAY 3, 32018

Orbit data source: Space-Track

SPACEWAY 3, 32018 is a payload satellite owned by Hughes NS (US) in GEO that was launched on Tue, 14 Aug 2007 UTC via an ARIANE 5ECA launch vehicle from the French Guiana (FRGUI). Payloads include a variety of satellites, spacecraft, and rockets equipped with specific instruments for various scientific and technological missions. These include communications satellites like Starlink; space stations such as the ISS; scientific satellites like the Hubble; Earth observation satellites from companies like Planet Labs, Umbra, and HawkEye 360; GPS; miniature CubeSats for education and research; and military/defense satellites.

Not visible in the next 10 days
SPACEWAY 3 details
Identifier
32018, 2007-036A
Orbit
GEO
Last TLE update19 hours ago
Origin
Flag of USHughes NS (US)
ManufacturerBoeing/ES
MissionNon-operational Commercial Communications
Bus & MotorBSS-702HP, R-4D-15-375
Mass6,075 kg wet, 3,655 kg dry
Launch date (UTC)
2007-08-14 (18 years ago)
Launch vehicle
ARIANE 5ECA
Launch site
French Guiana (FRGUI)
Object type
Payload
Rocket body
Debris
Shape & HBRBox + 2 Pan, 40.9 m
Radar Cross Section53.753 m², Large (>1 m²)

Expand to show TLE details & history

TLE from 19 hours ago
0 SPACEWAY 3
1 32018U 07036A   25046.68252671 -.00000293  00000-0  00000-0 0  9999
2 32018   2.7359  82.9488 0001760 139.2434 315.3694  0.99143620 41630
Epoch: 2025-02-15T16:22Z
Definitive object data (Epoch: 2025-02-15T16:22:50.307Z)
Latitude2.74729°
Longitude145.94399°
Altitude36,099.724 km
Speed3.064 km/s
True Right ascension11h 50m 19s
True Declination2° 44' 40"
Sunlit
Object was in daylight at TLE epoch
Visualization TLE readout
Latitude0.78721°
Longitude68.25086°
Altitude36,109.282 km
Speed3.063 km/s
Apparent Right ascension06h 16m 10s
Apparent Declination-4° 28' 30"
Sunlit
Object is in daylight
Visualization observer readout
Local Sidereal Time14:08:16
Azimuth285.297° WNW
Elevation-24.162°
Doppler factor1
Orbital elements
Apogee altitude36,114.392 km
Perigee altitude36,099.438 km
Semi-major axis42,485.052 km
Eccentricity0.000176
Inclination2.7359°
RAAN82.9488°
Arg. of periapsis139.2434°
True anomaly315.35523°
Mean anomaly315.3694°
Eccentric anomaly315.36231°
Mean motion0.24785 °/min
BSTARUnknown
Orbital period1452.49 mins
Loading historical data...
32018 neighbors
Authenticating...
Loading maneuver chart data...
Loading historical data...
Loading historical data...
Loading historical data...
Loading historical data...
Loading historical data...
Loading historical data...
Loading historical data...
Other satellites on launch #36 in the year 2007 (2007-08-14 UTC)

SPACEWAY 3 Visibility forecast

Observer location: undefined°, undefined

SPACEWAY 3 is not visible in the next 10 days
Span
Click to sort rows by Start time (UTC) header in descending order
Start Az.
Max El. time (UTC)
Max El. Az.
Max El.
End time (UTC)
End Az.
|